Regional Weather Roundup
Issued by NWS

Home | Current Version | Previous Version | Text Only | Print | Product List | Glossary Off
Versions: 1 2 3 4 5 6 7 8 9 10 11 12 13 14 15 16 17 18 19 20 21 22 23 24 25 26 27 28 29 30 31 32 33 34 35 36 37 38 39 40 41 42 43 44 45 46 47 48 49 50

429
ASUS43 KTOP 260108
RWRKS

WEATHER ROUNDUP FOR KANSAS
NATIONAL WEATHER SERVICE GOODLAND KS
800 PM CDT THU MAY 25 2017

NOTE:  "FAIR" INDICATES FEW OR NO CLOUDS BELOW 12,000 FEET WITH NO
SIGNIFICANT WEATHER AND/OR OBSTRUCTIONS TO VISIBILITY.

KSZ001>006-013>018-027>032-041>047-260200-
NORTHWEST KANSAS

CITY           SKY/WX    TMP DP  RH WIND       PRES   REMARKS
GOODLAND       CLOUDY    61  51  70 NE17      29.60R
HAYS           CLOUDY    73  61  65 SE5       29.49R
HILL CITY      TSTM      73  61  65 N8        29.59R
RUSSELL        CLEAR     73  60  63 E9        29.45F
$$

KSZ061>065-074>080-084>089-260200-
SOUTHWEST KANSAS

CITY           SKY/WX    TMP DP  RH WIND       PRES   REMARKS
DODGE CITY     CLOUDY    79  60  52 NW20G35   29.47R THUNDER
ELKHART          N/A     86  38  18 SW9         N/A
GARDEN CITY    CLEAR     78  49  35 S9        29.41R
GREAT BEND     CLEAR     78  60  53 SE12      29.46R
LIBERAL        CLEAR     86  49  27 SW16      29.45S
PRATT          CLEAR     76  56  49 S10       29.45S
$$

KSZ066>073-081>083-090>101-260200-
SOUTHEAST KANSAS

CITY           SKY/WX    TMP DP  RH WIND       PRES   REMARKS
CHANUTE        CLEAR     76  58  53 S14       29.56S
COFFEYVILLE    CLEAR     77  61  57 SE10      29.56S
HUTCHINSON     CLEAR     79  59  50 SE10      29.47R
MEDICINE LODGE   N/A     81  59  47 SE8G18    29.44S
NEWTON         CLEAR     76  60  57 SE14      29.49F
PARSONS        CLEAR     77  58  51 S8        29.57F
WICHITA INTL   CLEAR     80  60  50 S15       29.48R
WICHITA JABRA  CLEAR     78  60  53 SE14G20   29.49S
WICHITA MCCONL CLEAR     79  60  51 S10       29.49R
WINFIELD       CLOUDY    78  61  55 SE12      29.50F
$$

KSZ007>012-019>026-033>040-048>060-102>105-260200-
NORTHEAST KANSAS

CITY           SKY/WX    TMP DP  RH WIND       PRES   REMARKS
CONCORDIA      PTCLDY    73  58  59 E3        29.54R
EMPORIA        CLEAR     74  58  57 SE13      29.55R
LAWRENCE       CLEAR     73  56  54 SE12      29.57R
MANHATTAN      CLEAR     76  58  53 SE9       29.53R
MARYSVILLE     CLEAR     72  55  56 SE6       29.57R
OLATHE IND     CLEAR     73  55  53 SE14      29.59R
OLATHE EXE     CLEAR     72  56  57 SE10      29.58S
SALINA         CLEAR     79  60  52 SE7       29.50R
TOPEKA BILLARD CLEAR     73  58  59 SE9       29.56R
TOPEKA FORBES  CLEAR     76  57  51 S13       29.56R
$$




USA.gov is the U.S. government's official web portal to all federal, state and local government web resources and services.